Weather in Dubrovnoye

Russia / Kurgan Oblast     55°42′28″N   63°51′51″E
temp.,
°C
wind,
m/s
gust,
m/s
humid.,
%
clouds,
%
prec.,
mm/h
press.,
hPa
HPBL,
m
9 december, thu
thu923:00−11s51181100 0.0 1040224
02:00−10ssw5138172 0.0 1039291
05:00−9ssw61582100 0.0 1038359
08:00−8ssw61378100 0.0 1037332
11:00−8ssw61278100 0.0 1037298
14:00−7ssw51177100 0.0 1036274
17:00−8ssw51376100 0.0 1036253
20:00−8ssw51474100 0.0 1036266
10 december, fri
fri1023:00−8ssw6157388 0.0 1035282
02:00−8ssw61767100 0.0 1034305
05:00−8ssw7176599 0.0 1033319
08:00−9ssw71667100 0.0 1031293
11:00−7ssw71767100 0.0 1030332
14:00−6ssw61668100 0.0 1028373
17:00−6ssw51276100 0.0 1028297
20:00−6sw4983100 0.0 1028216
11 december, sat
sat1123:00−8wsw3590100 0.0 102884
02:00−8nnw3995100 0.0 1029178
05:00−10n4119499 0.0 1030247
08:00−12n411935 0.0 1032218
11:00−11n411857 0.0 1034266
14:00−10nnw39845 0.0 1033254
17:00−12nnw36915 0.0 103494
20:00−12nnw39895 0.0 1035134
12 december, sun
sun1223:00−12nnw410885 0.0 1035164
02:00−13nnw38925 0.0 1037133
05:00−13nnw38925 0.0 1038132
08:00−13nw259353 0.0 103878
11:00−11wnw34879 0.0 1039100
14:00−9w37825 0.0 1038168
17:00−11w410845 0.0 1038138
20:00−10w411835 0.0 1037192
13 december, mon
mon1323:00−10w410845 0.0 1037178
02:00−9wnw514745 0.0 1036308
05:00−9wnw514776 0.0 1036322
08:00−10wnw51478100 0.0 1035295
11:00−7wnw6167288 0.0 1035392
14:00−7wnw6157448 0.0 1034444
17:00−8wnw4118178 0.0 1034293
20:00−10wnw411866 0.0 1034228